Location: McDonald Observatory
(30.6717°N, 104.0221°W)
Time: 17:54:42
(UTC-05:00)

Daily predictions for brighter satellites

Satellite Brightness Start Highest point End
(mag) Time Altitude Azimuth Time Altitude Azimuth Time Altitude Azimuth
FENGYUN 3A 3.7 20:48:39 10° SSE 20:53:57 64° ENE 20:59:14 10° N
Cosmos 1892 3.4 20:53:47 10° NNE 20:57:15 34° E 21:00:43 10° SSE
FALCON 9 R/B 1.1 20:54:10 10° W 20:57:53 57° NNW 21:00:05 10° ENE
Cosmos 2297 Rocket 2.7 20:53:19 10° NNW 20:58:56 66° WSW 21:04:31 10° S
Cosmos 1400 Rocket 3.2 20:56:21 10° N 21:00:05 42° E 21:03:49 10° SSE
H-2A R/B 3.1 20:58:26 10° SSE 21:02:11 46° ENE 21:05:56 10° N
Cosmos 2322 Rocket 2.8 21:01:06 10° SSE 21:06:01 33° ESE 21:10:58 10° NE
FREGAT/IRIS 3.7 21:03:55 10° S 21:06:51 47° W 21:09:47 10° NNW
Cosmos 1302 Rocket 3.9 21:03:43 10° S 21:08:55 80° ESE 21:14:07 10° NNE
Envisat 4.5 21:05:50 10° ESE 21:09:20 19° ENE 21:12:49 10° NNE
Cosmos 1315 Rocket 3.7 21:10:06 10° NNE 21:13:44 31° ENE 21:17:08 11° SE
Meteor 2-3 Rocket 3.8 21:10:28 10° N 21:16:13 83° E 21:21:59 10° S
Cosmos 2360 Rocket 3.7 21:15:49 13° ESE 21:16:43 13° E 21:19:16 10° ENE
Cosmos 1980 Rocket 2.9 21:11:31 10° SSW 21:17:05 59° WNW 21:22:42 10° N
OTV 4 0.2 21:15:27 10° WNW 21:18:19 82° NNE 21:20:12 19° ESE
H-2A R/B (2) 4.0 21:17:48 10° WSW 21:21:43 29° S 21:33:12 12° SE
CZ-2D R/B 3.4 21:18:55 10° SSE 21:22:43 55° ENE 21:26:32 10° N
SEDSat Delta rocket 3.5 21:20:09 10° WSW 21:25:15 69° SSE 21:30:34 13° E
CZ-3 Stage 3 4.3 20:40:08 10° WNW 21:25:21 59° SW 21:31:42 14° SE
Cosmos 1825 3.7 21:24:02 10° NE 21:26:41 18° ENE 21:27:15 17° E
USA 234 4.4 21:22:54 11° E 21:27:55 28° NE 21:33:18 10° NNW
Cosmos 2227 Rocket 4.4 21:25:38 10° NW 21:30:04 24° WSW 21:34:29 10° SSW
SL-16 R/B 2.2 21:28:03 10° S 21:33:37 60° ESE 21:39:11 10° NNE
GPS 2-04 Rocket1 3.2 21:30:37 10° W 21:34:02 43° SSW 21:36:03 22° SE
ATLAS CENTAUR R/B 2.3 21:31:51 10° NW 21:34:55 79° SW 21:42:08 12° SSE
USA 186 1.4 21:34:07 31° SE 21:35:04 51° ENE 21:37:45 10° N
Hubble Space Telescope 3.3 21:34:41 10° SW 21:36:01 11° SSW 21:37:21 10° S
Cosmos 1707 Rocket 3.9 21:34:06 10° SSW 21:38:31 68° W 21:42:57 10° N
Nadezhda 4 Rocket 4.3 21:35:15 10° N 21:41:29 70° W 21:47:44 10° S
ERS-1 Rocket 4.4 21:42:09 18° E 21:43:01 19° ENE 21:46:26 10° NNE
SAR-Lupe-4 4.0 21:42:20 31° ESE 21:43:30 42° ENE 21:46:54 10° N
Helios 1B rocket 2.3 21:39:29 10° NNE 21:43:35 74° ESE 21:47:39 10° S
Cosmos 1634 Rocket 4.0 21:37:27 10° S 21:43:43 87° E 21:50:04 10° N
Lacrosse 4 Rocket 3.0 21:41:02 10° N 21:44:21 21° ENE 21:45:08 20° ENE
Intercosmos 25 Rocket 3.0 21:43:45 28° SSE 21:45:04 49° E 21:48:21 10° NNE
Cosmos 1939 Rocket 3.8 21:44:20 28° E 21:45:15 31° ENE 21:48:49 10° NNE
ATLAS 5 CENTAUR R/B 4.4 21:42:58 10° NNE 21:45:16 12° NE 21:47:38 10° ENE
ERBS 4.1 21:42:57 10° N 21:45:34 20° NE 21:46:04 19° ENE
ALOS 4.2 21:41:38 10° SSW 21:45:40 29° W 21:49:45 10° NW
Milstar 3 2.9 21:40:37 10° W 21:49:04 74° S 21:53:09 25° ESE
Sakura Rocket 3.7 21:46:48 10° SW 21:50:17 31° SSE 21:50:46 30° SE
Cosmos 1733 Rocket 4.0 21:47:06 10° NNE 21:50:59 29° E 21:51:22 29° E
Cosmos 1092 Rocket 4.1 21:44:58 10° N 21:51:21 83° W 21:57:40 10° S
Cosmos 1862 Rocket 4.0 21:50:04 29° SE 21:51:41 41° E 21:55:53 10° NNE
Cosmos 1486 Rocket 4.0 21:50:50 10° NNW 21:56:05 86° WSW 21:59:43 21° SSE
Resurs 1-3 4.4 21:52:00 10° S 21:56:15 49° W 22:00:30 10° NNW
Cosmos 1655 Rocket 4.3 21:51:29 10° N 21:57:38 48° E 22:00:35 29° SE
Meteor 2-20 Rocket 4.4 21:52:45 10° N 21:58:51 66° E 22:02:48 23° SSE
Gblst 52 Del rocket 4.2 21:55:07 10° NW 22:00:50 75° SW 22:03:26 32° SSE
SAR-Lupe-1 4.0 22:00:28 55° ESE 22:00:58 64° ENE 22:04:31 10° N
Cosmos 1992 Rocket 3.9 21:56:15 10° S 22:01:27 75° ESE 22:06:41 10° NNE
Cosmos 1408 2.6 21:58:10 10° N 22:01:48 56° E 22:01:58 55° E
USA 229 DEB 4.0 22:00:27 10° S 22:06:38 39° ESE 22:12:53 10° NE
USA 229 4.0 22:00:33 10° S 22:06:44 38° ESE 22:12:57 10° NE
Cosmos 2227 4.2 22:02:22 10° NNW 22:08:06 81° WSW 22:11:15 28° SSE
Atlas Centaur 2 2.8 22:02:45 10° WSW 22:09:41 68° SSE 22:14:12 29° E
Cosmos 2242 Rocket 4.0 22:05:56 10° SSW 22:10:25 63° W 22:14:54 10° N
Helios 1A 3.3 22:13:13 31° S 22:15:05 63° WSW 22:19:18 10° NNW
Cosmos 2279 Rocket 4.1 22:18:41 10° S 22:24:55 75° W 22:31:09 10° N
CZ-4B DEB 4.1 22:26:45 37° WNW 22:26:45 37° WNW 22:29:00 10° NNW
Cosmos 1503 Rocket 3.9 22:22:14 10° NNW 22:27:29 88° WSW 22:28:33 58° SSE
Resurs 01 Rocket 4.2 22:24:38 10° SW 22:27:39 18° W 22:30:41 10° NW
DELTA 2 R/B (1) 3.6 22:23:56 10° WNW 22:29:30 66° SSW 22:30:21 57° SSE
YAOGAN 6 3.8 22:31:23 36° N 22:31:23 36° N 22:33:40 10° N
Cosmos 1354 Rocket 4.0 22:26:14 10° NNW 22:31:30 80° WSW 22:32:35 57° S
H-2A R/B 4.1 22:33:27 14° NE 22:33:27 14° NE 22:34:45 10° NNE
CCE 1 Rocket 4.2 22:24:45 10° W 22:32:37 62° SSW 22:33:11 58° SSE
OAO 3 Rocket 3.9 22:28:43 10° WNW 22:33:31 50° N 22:34:27 44° NE
SPOT 5 4.1 22:43:24 29° NE 22:43:24 29° NE 22:46:15 10° N
H-2A R/B 4.1 14:37:40 10° SSW 22:46:56 81° S 22:51:40 41° E
Envisat 4.2 22:45:59 27° SW 22:48:00 38° W 22:52:43 10° NNW
Meteor 2-10 Rocket 3.8 22:46:39 52° SSW 22:48:08 80° W 22:53:59 10° N
Cosmos 2322 Rocket 4.3 22:45:24 10° WSW 22:50:00 26° WNW 22:54:38 10° N
Cosmos 2263 Rocket 2.1 22:44:57 10° NNW 22:50:08 70° NE 22:50:08 70° NE
Cosmos 2360 Rocket 2.6 22:57:15 29° SW 23:00:05 60° WNW 23:05:40 10° NNE
Cosmos 2322 4.1 23:07:11 53° WSW 23:08:06 61° WNW 23:13:45 10° NNE
NOAA 11 4.5 23:09:51 64° NNW 23:09:51 64° NNW 23:14:29 10° NNW
USA 234 3.2 23:10:15 73° SSW 23:10:28 73° SW 23:17:01 10° NW
SEDSat Delta rocket 4.0 23:06:06 10° W 23:10:43 62° WNW 23:10:43 62° WNW
ERS-1 Rocket 4.2 23:22:09 36° W 23:22:09 36° W 23:26:07 10° NNW
Lacrosse 4 Rocket 3.7 23:19:18 10° NW 23:21:30 22° WNW 23:21:30 22° WNW
ATLAS 5 CENTAUR R/B 3.0 23:24:37 10° NNW 23:29:19 53° N 23:29:19 53° N
ARGOS 4.3 23:34:29 40° NNW 23:34:29 40° NNW 23:37:56 10° NNW
SeaSat 1 4.1 23:36:49 30° NNW 23:36:49 30° NNW 23:39:19 10° NNW
Terra 4.4 23:48:56 15° N 23:48:56 15° N 23:49:50 10° N
